Dewpoint
53 53 54 54 55 55 55 55 56 58 58 58 58 58 58 58 57 53 51 53 54 60 64 58 56 52 50 48 42 38 34 32 31 26 26 30 34 36 35 34 34 36 41 44 51
53 52 53 53 53 54 55 55 55 56 57 58 57 57 58 57 52 51 53 56 57 59 58 54 52 49 45 46 40 37 35 35 34 28 28 34 36 36 33 32 32 33 44 51 53
52 52 52 53 53 53 54 54 55 55 56 57 57 57 57 54 47 44 55 58 57 56 57 59 52 48 45 42 39 38 36 37 36 34 34 38 38 37 33 32 32 32 33 44 52
52 52 52 52 53 53 53 54 54 55 55 55 56 57 56 51 36 46 54 55 57 53 54 58 54 45 44 42 41 38 38 37 39 40 39 39 37 35 34 33 34 34 35 39 49
51 52 52 52 52 52 52 53 53 54 54 55 55 55 52 46 42 43 51 50 51 52 52 55 48 44 43 42 42 41 41 41 41 41 41 40 36 34 33 34 34 34 33 35 46
52 52 52 52 53 52 52 52 53 54 54 55 55 55 48 41 43 44 44 44 50 51 51 55 50 45 43 42 42 42 42 41 41 39 36 34 35 34 33 34 32 31 31 31 40
53 52 52 52 52 52 53 52 52 53 54 54 55 52 47 41 43 46 46 42 46 51 49 55 56 45 44 43 43 42 40 38 36 36 36 35 33 32 33 32 31 30 30 31 33
53 53 53 53 52 52 52 53 52 53 53 53 54 49 41 46 45 44 45 46 48 52 51 57 57 47 45 42 35 35 33 33 35 33 33 32 26 30 33 34 31 29 30 35 39
52 52 52 54 54 54 53 53 53 52 52 53 49 46 40 47 45 45 44 44 50 51 54 57 54 47 45 40 34 32 31 30 31 31 32 31 29 28 31 28 28 27 34 36 38
53 52 51 53 54 55 54 52 52 50 50 49 48 42 42 41 45 45 46 44 48 50 49 54 51 46 44 40 37 34 31 30 29 30 30 29 29 30 30 29 27 27 34 37 38
54 54 52 53 53 56 55 51 44 42 45 41 40 40 41 42 46 45 44 42 46 47 45 50 46 43 42 43 39 36 31 32 29 28 27 27 28 28 29 28 26 29 34 36 38
55 54 53 53 55 56 52 45 41 44 38 42 44 41 42 47 43 43 43 43 45 36 44 48 42 44 43 43 40 32 30 29 31 31 27 28 27 28 29 26 26 30 34 36 38
55 54 54 55 55 54 49 44 52 47 40 40 42 42 42 44 42 42 43 43 42 33 42 41 44 44 43 39 37 33 32 33 32 30 30 28 27 28 26 29 31 33 35 37 38
55 54 54 55 52 52 48 51 53 49 35 36 38 41 44 44 40 44 43 43 42 33 41 44 45 44 42 42 41 39 34 33 30 29 26 28 24 27 24 28 31 33 36 37 39
55 54 55 55 52 50 51 52 52 49 21 35 38 44 44 40 41 44 43 43 41 38 42 42 44 44 42 41 42 40 35 33 32 28 25 28 24 25 24 27 30 32 34 36 39
55 55 55 54 54 53 54 52 49 35 23 34 40 38 39 39 41 44 44 49 44 39 41 39 43 45 45 43 40 37 32 30 29 26 24 26 25 24 24 25 29 31 32 36 39
55 55 54 55 50 55 53 48 34 28 35 35 35 37 37 37 39 41 40 41 38 36 36 33 42 38 41 34 33 34 30 29 25 25 24 26 24 25 26 25 28 31 32 35 39
55 54 54 53 56 54 50 39 30 35 32 38 37 36 34 37 39 38 40 40 42 34 35 34 34 31 29 38 36 33 31 26 23 23 23 25 23 23 27 31 29 32 32 36 38
54 50 51 53 55 52 42 33 34 35 37 38 36 32 35 37 40 40 40 39 40 34 32 34 32 26 26 27 36 27 28 29 27 25 25 26 24 26 30 30 31 31 32 35 37
49 46 48 53 55 49 40 35 39 41 39 37 32 35 36 36 38 38 39 41 40 36 33 30 23 28 25 24 24 27 29 26 27 24 22 23 22 24 24 29 31 31 32 34 37
47 43 51 54 54 46 37 36 42 41 40 37 37 35 36 35 39 37 38 40 39 34 32 28 26 28 26 25 23 23 24 25 27 26 22 20 21 24 24 27 31 31 32 34 37
44 40 53 53 44 45 40 45 42 42 47 44 40 38 36 36 37 38 38 37 39 40 35 33 29 25 26 32 28 24 23 24 25 22 22 21 22 25 27 28 32 32 34 34 36
41 47 52 52 42 42 45 43 43 43 44 44 37 38 35 35 37 39 42 41 42 39 37 35 31 29 30 32 33 30 26 24 25 25 22 20 22 26 26 30 32 33 34 34 35
44 40 47 48 46 42 43 41 43 47 45 42 39 39 37 37 38 38 39 40 41 40 44 39 32 28 27 28 30 30 28 26 25 24 23 23 24 29 27 28 31 34 35 35 36
40 37 41 38 40 39 40 43 42 41 43 41 40 37 37 35 36 37 37 37 37 42 36 34 29 29 25 30 31 30 30 27 25 25 24 25 24 27 27 28 28 30 32 35 37
39 37 38 36 35 35 36 36 36 36 38 40 40 39 37 36 36 36 36 36 35 35 33 32 28 24 20 23 22 25 29 28 27 26 25 27 26 27 30 33 35 34 34 36 36
41 42 36 35 32 32 34 34 34 35 37 37 38 38 33 33 32 35 33 33 35 32 30 26 24 23 21 23 22 18 21 30 28 27 28 26 26 27 33 34 35 36 35 35 35
Lifted_Index
10 10 9 9 8 8 7 7 6 5 4 3 3 3 3 4 5 6 6 6 4 2 1 1 1 2 3 3 4 5 5 4 3 4 5 6 6 5 4 2 2 2 2 2 2
10 10 10 9 9 8 7 6 5 5 4 3 2 3 3 4 6 6 6 6 4 3 1 1 1 2 3 3 4 5 5 4 3 4 4 5 6 5 3 2 1 1 2 2 2
10 10 10 9 9 8 7 6 5 4 3 2 2 2 2 4 6 6 6 5 5 3 2 1 1 2 2 3 4 4 5 4 4 4 4 5 5 5 3 2 2 1 2 2 2
10 9 9 9 8 8 7 6 5 3 2 1 1 1 2 4 5 6 5 5 5 4 3 1 1 1 2 3 3 4 4 4 4 4 4 4 5 5 4 3 3 3 3 3 2
9 9 9 8 8 8 7 5 4 2 1 0 -0 -0 2 4 6 6 5 5 5 4 3 2 1 1 2 2 3 4 4 4 4 3 3 3 4 5 5 4 4 4 4 4 3
9 9 8 8 8 7 7 5 3 2 0 -0 -1 -0 2 4 6 6 6 5 5 5 3 2 1 1 2 2 3 3 3 3 3 3 3 3 3 4 4 4 5 5 5 5 4
8 8 8 8 8 7 6 5 3 1 0 -1 -1 -0 2 4 5 6 6 6 5 5 4 1 0 1 2 2 2 3 3 3 3 3 3 3 3 4 4 5 5 5 5 5 5
8 8 8 8 7 7 5 4 2 1 0 -1 -1 -0 2 3 4 5 6 6 6 5 3 1 0 1 2 2 2 3 4 4 3 3 3 4 4 5 6 5 5 5 5 5 5
8 8 8 7 6 5 5 3 2 1 1 -0 -0 0 1 2 4 5 6 6 5 4 2 1 0 1 2 2 3 3 4 4 3 3 4 4 4 5 6 5 5 5 5 5 5
8 8 8 7 6 5 4 3 3 2 1 1 0 1 1 2 3 5 6 5 4 3 2 1 0 1 2 2 3 4 4 4 3 3 4 5 5 6 6 5 5 5 5 5 5
7 7 7 7 5 4 3 3 4 3 2 1 1 0 1 1 3 4 5 5 4 3 2 1 1 1 2 2 2 3 4 3 3 4 5 5 5 6 6 5 5 5 6 6 5
7 7 7 6 5 4 3 3 4 3 3 2 1 0 0 1 2 4 5 5 4 4 2 1 1 1 2 2 2 3 3 3 3 4 4 5 5 6 6 6 6 6 6 6 6
7 7 7 6 5 4 3 3 3 3 2 2 1 0 0 1 2 4 5 4 4 4 3 1 1 1 1 2 2 2 3 3 3 3 4 4 4 5 6 6 6 7 7 7 7
7 7 7 6 5 4 4 3 3 3 2 2 1 1 1 1 2 3 4 4 4 4 3 1 1 1 1 2 2 2 2 2 2 3 3 4 3 4 5 6 6 7 7 8 8
6 6 6 6 5 5 4 4 3 2 1 1 1 1 1 2 2 3 3 3 4 4 2 1 1 1 1 1 2 2 2 2 2 3 3 3 3 3 4 5 6 7 7 8 8
6 6 6 6 6 5 4 4 4 2 2 1 1 1 1 2 3 3 3 3 3 3 2 1 1 1 1 1 1 1 1 1 2 2 3 3 3 3 4 5 6 7 7 8 8
6 6 6 6 6 5 5 5 4 3 2 2 1 1 2 2 3 3 4 3 3 3 2 2 1 1 1 1 1 1 1 1 1 1 2 3 3 3 5 6 6 7 7 8 8
6 6 6 6 6 6 5 4 3 2 2 2 1 1 2 2 2 3 3 3 3 3 3 3 2 2 1 2 2 1 1 1 1 1 2 3 3 4 5 5 6 6 7 7 8
6 6 6 6 6 6 5 3 2 1 1 2 2 2 2 2 2 2 2 2 2 3 3 3 3 2 2 2 1 1 1 2 2 2 2 3 3 4 4 4 5 5 6 6 7
6 5 5 5 6 6 5 2 1 1 2 2 2 2 2 2 1 1 2 2 2 3 3 3 3 3 2 2 2 2 2 2 3 2 2 2 3 3 4 4 4 4 5 6 6
4 4 4 5 5 5 3 2 1 1 2 2 2 2 2 2 1 1 1 2 2 3 3 3 3 3 3 3 3 2 2 3 3 3 2 2 3 3 3 3 3 4 5 5 5
3 3 4 4 4 3 3 2 2 2 1 1 2 2 2 2 1 1 1 1 2 2 3 3 3 3 3 3 3 3 3 3 3 3 3 3 3 3 3 3 3 4 4 5 5
3 3 4 4 2 2 2 2 2 2 1 1 2 2 2 2 1 1 1 1 2 2 3 3 3 3 3 3 3 3 2 3 3 4 4 3 3 3 3 3 4 4 5 5 5
3 3 3 2 2 1 2 2 2 2 2 2 2 2 2 1 1 1 1 1 2 2 2 2 2 2 2 2 2 2 2 3 4 4 4 3 3 3 4 4 4 5 5 5 5
3 3 2 2 1 1 2 2 2 2 2 2 2 2 2 1 1 1 1 1 1 1 1 1 1 1 2 2 2 2 2 3 3 4 4 3 3 3 4 5 5 5 6 6 6
5 4 3 2 1 1 1 2 2 2 2 2 2 2 1 1 1 1 1 1 1 1 0 0 0 1 1 1 2 2 2 3 3 3 3 3 3 3 4 5 5 5 6 6 5
5 5 3 2 1 1 1 1 2 2 2 2 2 1 1 1 1 1 1 1 1 1 1 0 1 1 1 1 1 2 2 3 3 3 3 3 3 3 4 5 5 5 5 5 5